Tracking 35280 objects as of 7-Sep-2026
HD Live streaming from Space Station
objects crossing your sky now

ONEWEB-0168

Track ONEWEB-0168 now!
10-day predictions
ONEWEB-0168 is classified as:


NORAD ID: 48068
Int'l Code: 2021-025AC
Launch date: March 25, 2021
Source: United States (US)
Launch site: VOSTOCHNY COSMODROME (VOSTO)
Your satellite tracking list
Your tracking list is empty




NASA's NSSDC Master Catalog

Two Line Element Set (TLE):
1 48068U 21025AC  26250.56600939 -.00000337  00000-0 -95824-3 0  9995
2 48068  87.8939 303.8387 0001894  94.5726 265.5620 13.13469053264372
Source of the keplerian elements: AFSPC